Time,TemperatureF,DewpointF,PressureIn,WindDirection,WindDirectionDegrees,WindSpeedMPH,WindSpeedGustMPH,Humidity,HourlyPrecipIn,Conditions,Clouds,dailyrainin,SolarRadiationWatts/m^2,SoftwareType,DateUTC
2013-04-01 00:02:00,36.0,34.0,-100.00,West,281,30.0,46.0,94,0.01,,,0.02,0.000000,,2013-04-01 07:02:00,
2013-04-01 00:12:00,36.0,34.0,-100.00,West,281,30.0,46.0,94,0.01,,,0.02,0.000000,,2013-04-01 07:12:00,
2013-04-01 00:22:00,36.0,34.0,-100.00,West,281,30.0,46.0,94,0.01,,,0.02,0.000000,,2013-04-01 07:22:00,
2013-04-01 00:53:00,36.0,33.0,-100.00,WNW,284,32.0,48.0,87,0.00,,,0.02,0.000000,,2013-04-01 07:53:00,
2013-04-01 01:02:00,36.0,33.0,-100.00,WNW,284,32.0,48.0,87,0.00,,,0.02,0.000000,,2013-04-01 08:02:00,
2013-04-01 01:12:00,36.0,33.0,-100.00,WNW,284,32.0,48.0,87,0.00,,,0.02,0.000000,,2013-04-01 08:12:00,
2013-04-01 01:22:00,36.0,33.0,-100.00,WNW,284,32.0,48.0,87,0.00,,,0.02,0.000000,,2013-04-01 08:22:00,
2013-04-01 01:53:00,35.0,32.0,-100.00,WNW,291,36.0,52.0,89,0.00,,,0.02,0.000000,,2013-04-01 08:53:00,
2013-04-01 02:02:00,35.0,32.0,-100.00,WNW,291,36.0,52.0,89,0.00,,,0.02,0.000000,,2013-04-01 09:02:00,
2013-04-01 02:12:00,35.0,32.0,-100.00,WNW,291,36.0,52.0,89,0.00,,,0.02,0.000000,,2013-04-01 09:12:00,
2013-04-01 02:21:00,35.0,32.0,-100.00,WNW,291,36.0,52.0,89,0.00,,,0.02,0.000000,,2013-04-01 09:21:00,
2013-04-01 02:53:00,34.0,31.0,-100.00,WNW,288,38.0,54.0,87,0.00,,,0.02,0.000000,,2013-04-01 09:53:00,
2013-04-01 03:03:00,34.0,31.0,-100.00,WNW,288,38.0,54.0,87,0.00,,,0.02,0.000000,,2013-04-01 10:03:00,
2013-04-01 03:12:00,34.0,31.0,-100.00,WNW,288,38.0,54.0,87,0.00,,,0.02,0.000000,,2013-04-01 10:12:00,
2013-04-01 03:22:00,34.0,31.0,-100.00,WNW,288,38.0,54.0,87,0.00,,,0.02,0.000000,,2013-04-01 10:22:00,
2013-04-01 03:53:00,33.0,29.0,-100.00,WNW,293,38.0,57.0,85,0.00,,,0.02,0.000000,,2013-04-01 10:53:00,
2013-04-01 04:02:00,33.0,29.0,-100.00,WNW,293,38.0,57.0,85,0.00,,,0.02,0.000000,,2013-04-01 11:02:00,
2013-04-01 04:12:00,33.0,29.0,-100.00,WNW,293,38.0,57.0,85,0.00,,,0.02,0.000000,,2013-04-01 11:12:00,
2013-04-01 04:22:00,33.0,29.0,-100.00,WNW,293,38.0,57.0,85,0.00,,,0.02,0.000000,,2013-04-01 11:22:00,
2013-04-01 04:53:00,34.0,31.0,-100.00,WNW,282,36.0,52.0,87,0.00,,,0.02,0.000000,,2013-04-01 11:53:00,
2013-04-01 05:02:00,34.0,31.0,-100.00,WNW,282,36.0,52.0,87,0.00,,,0.02,0.000000,,2013-04-01 12:02:00,
2013-04-01 05:12:00,34.0,31.0,-100.00,WNW,282,36.0,52.0,87,0.00,,,0.02,0.000000,,2013-04-01 12:12:00,
2013-04-01 05:22:00,34.0,31.0,-100.00,WNW,282,36.0,52.0,87,0.00,,,0.02,0.000000,,2013-04-01 12:22:00,
2013-04-01 05:53:00,32.0,29.0,-100.00,WNW,287,30.0,40.0,88,0.00,,,0.02,0.000000,,2013-04-01 12:53:00,
2013-04-01 06:02:00,32.0,29.0,-100.00,WNW,287,30.0,40.0,88,0.00,,,0.02,0.000000,,2013-04-01 13:02:00,
2013-04-01 06:12:00,32.0,29.0,-100.00,WNW,287,30.0,40.0,88,0.00,,,0.02,0.000000,,2013-04-01 13:12:00,
2013-04-01 06:22:00,32.0,29.0,-100.00,WNW,287,30.0,40.0,88,0.00,,,0.02,0.000000,,2013-04-01 13:22:00,
2013-04-01 06:52:00,32.0,29.0,-100.00,WNW,285,25.0,42.0,87,0.00,,,0.02,0.000000,,2013-04-01 13:52:00,
2013-04-01 07:03:00,32.0,29.0,-100.00,WNW,285,25.0,42.0,87,0.00,,,0.02,0.000000,,2013-04-01 14:03:00,
2013-04-01 07:12:00,32.0,29.0,-100.00,WNW,285,25.0,42.0,87,0.00,,,0.02,0.000000,,2013-04-01 14:12:00,
2013-04-01 07:22:00,32.0,29.0,-100.00,WNW,285,25.0,42.0,87,0.00,,,0.02,0.000000,,2013-04-01 14:22:00,
2013-04-01 07:53:00,34.0,30.0,-100.00,West,275,18.0,40.0,85,0.00,,,0.02,26.000000,,2013-04-01 14:53:00,
2013-04-01 08:02:00,34.0,30.0,-100.00,West,275,18.0,40.0,85,0.00,,,0.02,26.000000,,2013-04-01 15:02:00,
2013-04-01 08:12:00,34.0,30.0,-100.00,West,275,18.0,40.0,85,0.00,,,0.02,26.000000,,2013-04-01 15:12:00,
2013-04-01 08:22:00,34.0,30.0,-100.00,West,275,18.0,40.0,85,0.00,,,0.02,26.000000,,2013-04-01 15:22:00,
2013-04-01 08:53:00,35.0,32.0,-100.00,WNW,300,14.0,35.0,87,0.00,,,-99.99,292.000000,,2013-04-01 15:53:00,
2013-04-01 09:02:00,35.0,32.0,-100.00,WNW,300,14.0,35.0,87,0.00,,,-99.99,292.000000,,2013-04-01 16:02:00,
2013-04-01 09:12:00,35.0,32.0,-100.00,WNW,300,14.0,35.0,87,0.00,,,-99.99,292.000000,,2013-04-01 16:12:00,
2013-04-01 09:22:00,35.0,32.0,-100.00,WNW,300,14.0,35.0,87,0.00,,,-99.99,292.000000,,2013-04-01 16:22:00,
2013-04-01 10:53:00,39.0,31.0,-100.00,NW,318,12.0,21.0,74,-99.99,,,0.02,614.000000,,2013-04-01 17:53:00,
2013-04-01 11:02:00,39.0,31.0,-100.00,NW,318,12.0,21.0,74,-99.99,,,0.02,614.000000,,2013-04-01 18:02:00,
2013-04-01 11:12:00,39.0,31.0,-100.00,NW,318,12.0,21.0,74,-99.99,,,0.02,614.000000,,2013-04-01 18:12:00,
2013-04-01 11:22:00,39.0,31.0,-100.00,NW,318,12.0,21.0,74,-99.99,,,0.02,614.000000,,2013-04-01 18:22:00,
2013-04-01 11:53:00,41.0,29.0,-100.00,NNW,327,14.0,24.0,63,0.00,,,-99.99,1047.000000,,2013-04-01 18:53:00,
2013-04-01 12:03:00,41.0,29.0,-100.00,NNW,327,14.0,24.0,63,0.00,,,-99.99,1047.000000,,2013-04-01 19:03:00,
2013-04-01 12:12:00,41.0,29.0,-100.00,NNW,327,14.0,24.0,63,0.00,,,-99.99,1047.000000,,2013-04-01 19:12:00,
2013-04-01 12:22:00,41.0,29.0,-100.00,NNW,327,14.0,24.0,63,0.00,,,-99.99,1047.000000,,2013-04-01 19:22:00,
2013-04-01 12:53:00,45.0,30.0,-100.00,NW,310,19.0,27.0,56,0.00,,,0.02,1171.000000,,2013-04-01 19:53:00,
2013-04-01 13:02:00,45.0,30.0,-100.00,NW,310,19.0,27.0,56,0.00,,,0.02,1171.000000,,2013-04-01 20:02:00,
2013-04-01 13:12:00,45.0,30.0,-100.00,NW,310,19.0,27.0,56,0.00,,,0.02,1171.000000,,2013-04-01 20:12:00,
2013-04-01 13:22:00,45.0,30.0,-100.00,NW,310,19.0,27.0,56,0.00,,,0.02,1171.000000,,2013-04-01 20:22:00,
2013-04-01 13:52:00,46.0,29.0,-100.00,NW,322,17.0,30.0,51,0.00,,,0.02,1209.000000,,2013-04-01 20:52:00,
2013-04-01 14:02:00,46.0,29.0,-100.00,NW,322,17.0,30.0,51,0.00,,,0.02,1209.000000,,2013-04-01 21:02:00,
2013-04-01 14:11:00,46.0,29.0,-100.00,NW,322,17.0,30.0,51,0.00,,,0.02,1209.000000,,2013-04-01 21:11:00,
2013-04-01 14:22:00,46.0,29.0,-100.00,NW,322,17.0,30.0,51,0.00,,,0.02,1209.000000,,2013-04-01 21:22:00,
2013-04-01 14:53:00,49.0,28.0,-100.00,West,276,14.0,28.0,44,0.00,,,0.02,1167.000000,,2013-04-01 21:53:00,
2013-04-01 15:02:00,49.0,28.0,-100.00,West,276,14.0,28.0,44,0.00,,,0.02,1167.000000,,2013-04-01 22:02:00,
2013-04-01 15:12:00,49.0,28.0,-100.00,West,276,14.0,28.0,44,0.00,,,0.02,1167.000000,,2013-04-01 22:12:00,
2013-04-01 15:22:00,49.0,28.0,-100.00,West,276,14.0,28.0,44,0.00,,,0.02,1167.000000,,2013-04-01 22:22:00,
2013-04-01 15:52:00,47.0,28.0,-100.00,WNW,286,23.0,34.0,47,0.00,,,0.02,1047.000000,,2013-04-01 22:52:00,
2013-04-01 16:02:00,47.0,28.0,-100.00,WNW,286,23.0,34.0,47,0.00,,,0.02,1047.000000,,2013-04-01 23:02:00,
2013-04-01 16:12:00,47.0,28.0,-100.00,WNW,286,23.0,34.0,47,0.00,,,0.02,1047.000000,,2013-04-01 23:12:00,
2013-04-01 16:22:00,47.0,28.0,-100.00,WNW,286,23.0,34.0,47,0.00,,,0.02,1047.000000,,2013-04-01 23:22:00,
2013-04-01 16:53:00,48.0,31.0,-100.00,West,279,24.0,37.0,52,0.00,,,0.02,864.000000,,2013-04-01 23:53:00,
2013-04-01 17:02:00,48.0,31.0,-100.00,West,279,24.0,37.0,52,0.00,,,0.02,864.000000,,2013-04-02 00:02:00,
2013-04-01 17:12:00,48.0,31.0,-100.00,West,279,24.0,37.0,52,0.00,,,0.02,864.000000,,2013-04-02 00:12:00,
2013-04-01 17:22:00,48.0,31.0,-100.00,West,279,24.0,37.0,52,0.00,,,0.02,864.000000,,2013-04-02 00:22:00,
2013-04-01 17:53:00,44.0,30.0,-100.00,West,276,22.0,39.0,58,0.00,,,0.02,604.000000,,2013-04-02 00:53:00,
2013-04-01 18:02:00,44.0,30.0,-100.00,West,276,22.0,39.0,58,0.00,,,0.02,604.000000,,2013-04-02 01:02:00,
2013-04-01 18:11:00,44.0,30.0,-100.00,West,276,22.0,39.0,58,0.00,,,0.02,604.000000,,2013-04-02 01:11:00,
2013-04-01 18:22:00,44.0,30.0,-100.00,West,276,22.0,39.0,58,0.00,,,0.02,604.000000,,2013-04-02 01:22:00,
2013-04-01 18:53:00,44.0,30.0,-100.00,West,277,25.0,37.0,58,0.00,,,0.02,321.000000,,2013-04-02 01:53:00,
2013-04-01 19:02:00,44.0,30.0,-100.00,West,277,25.0,37.0,58,0.00,,,0.02,321.000000,,2013-04-02 02:02:00,
2013-04-01 19:12:00,44.0,30.0,-100.00,West,277,25.0,37.0,58,0.00,,,0.02,321.000000,,2013-04-02 02:12:00,
2013-04-01 19:21:00,44.0,30.0,-100.00,West,277,25.0,37.0,58,0.00,,,0.02,321.000000,,2013-04-02 02:21:00,
2013-04-01 19:53:00,41.0,29.0,-100.00,West,273,23.0,41.0,63,0.00,,,0.02,50.000000,,2013-04-02 02:53:00,
2013-04-01 20:02:00,41.0,29.0,-100.00,West,273,23.0,41.0,63,0.00,,,0.02,50.000000,,2013-04-02 03:02:00,
2013-04-01 20:12:00,41.0,29.0,-100.00,West,273,23.0,41.0,63,0.00,,,0.02,50.000000,,2013-04-02 03:12:00,
2013-04-01 20:22:00,41.0,29.0,-100.00,West,273,23.0,41.0,63,0.00,,,0.02,50.000000,,2013-04-02 03:22:00,
2013-04-01 20:53:00,40.0,30.0,-100.00,West,278,24.0,42.0,67,0.00,,,0.01,0.000000,,2013-04-02 03:53:00,
2013-04-01 21:02:00,40.0,30.0,-100.00,West,278,24.0,42.0,67,0.00,,,0.01,0.000000,,2013-04-02 04:02:00,
2013-04-01 21:12:00,40.0,30.0,-100.00,West,278,24.0,42.0,67,0.00,,,0.01,0.000000,,2013-04-02 04:12:00,
2013-04-01 21:22:00,40.0,30.0,-100.00,West,278,24.0,42.0,67,0.00,,,0.01,0.000000,,2013-04-02 04:22:00,
2013-04-01 21:53:00,39.0,31.0,-100.00,WNW,298,19.0,34.0,72,0.00,,,0.01,0.000000,,2013-04-02 04:53:00,
2013-04-01 22:02:00,39.0,31.0,-100.00,WNW,298,19.0,34.0,72,0.00,,,0.01,0.000000,,2013-04-02 05:02:00,
2013-04-01 22:12:00,39.0,31.0,-100.00,WNW,298,19.0,34.0,72,0.00,,,0.01,0.000000,,2013-04-02 05:12:00,
2013-04-01 22:22:00,39.0,31.0,-100.00,WNW,298,19.0,34.0,72,0.00,,,0.01,0.000000,,2013-04-02 05:22:00,
2013-04-01 22:52:00,37.0,30.0,-100.00,NW,311,26.0,33.0,75,0.00,,,0.01,0.000000,,2013-04-02 05:52:00,
2013-04-01 23:02:00,37.0,30.0,-100.00,NW,311,26.0,33.0,75,0.00,,,0.01,0.000000,,2013-04-02 06:02:00,
2013-04-01 23:12:00,37.0,30.0,-100.00,NW,311,26.0,33.0,75,0.00,,,0.01,0.000000,,2013-04-02 06:12:00,
2013-04-01 23:22:00,37.0,30.0,-100.00,NW,311,26.0,33.0,75,0.00,,,0.01,0.000000,,2013-04-02 06:22:00,
2013-04-01 23:52:00,37.0,31.0,-100.00,NW,326,28.0,36.0,78,0.00,,,0.00,0.000000,,2013-04-02 06:52:00,